Location: Biltmore Gardens
(41.6070°N, 83.4666°W)
Time: 12:35:36
(UTC+00:00)

A-11 Canister half - Visible Passes

Search period start: 18 April 2021 00:00
Search period end: 28 April 2021 00:00
Orbit: 1515 x 1685 km, 47.2° (Epoch: 17 April)

Date Brightness Start Highest point End Pass type
(mag) Time Alt. Az. Time Alt. Az. Time Alt. Az.
18 Apr 9.7 01:07:19 10° S 01:14:44 27° SE 01:22:16 10° ENE visible
18 Apr 8.8 03:09:09 10° SW 03:18:32 78° SSE 03:28:18 10° ENE visible
18 Apr 9.3 05:14:25 10° W 05:23:56 65° N 05:33:50 10° ENE visible
18 Apr 9.2 07:20:08 10° WNW 07:29:55 73° NNE 07:40:01 10° ESE visible
18 Apr 9.2 09:25:19 10° WNW 09:34:57 59° SW 09:44:50 10° SE visible
19 Apr 9.8 00:44:46 10° S 00:51:54 25° SE 00:59:10 10° ENE visible
19 Apr 8.8 02:46:18 10° SW 02:55:37 75° SSE 03:05:20 10° ENE visible
19 Apr 9.2 04:51:27 10° W 05:00:57 66° N 05:10:50 10° ENE visible
19 Apr 9.2 06:57:11 10° WNW 07:06:56 71° NNE 07:17:00 10° E visible
19 Apr 9.1 09:02:22 10° WNW 09:12:03 62° SW 09:21:58 10° SE visible
20 Apr 8.9 02:23:27 10° SW 02:32:44 72° SE 02:42:22 10° ENE visible
20 Apr 9.2 04:28:31 10° W 04:37:58 67° N 04:47:49 10° ENE visible
20 Apr 9.2 06:34:15 10° WNW 06:43:57 70° NNE 06:53:58 10° E visible
20 Apr 9.0 08:39:25 10° WNW 08:49:08 65° SW 08:59:05 10° SE visible
21 Apr 8.9 02:00:37 10° SW 02:09:50 68° SE 02:19:23 10° ENE visible
21 Apr 9.2 04:05:33 10° W 04:14:59 68° NNW 04:24:49 10° ENE visible
21 Apr 9.2 06:11:19 10° WNW 06:20:58 69° NNE 06:30:57 10° E visible
21 Apr 9.0 08:16:29 10° WNW 08:26:13 68° SW 08:36:12 10° SE visible
22 Apr 8.9 01:37:48 10° SW 01:46:57 65° SE 01:56:25 10° ENE visible
22 Apr 9.2 03:42:36 10° W 03:52:01 69° NNW 04:01:49 10° ENE visible
22 Apr 9.2 05:48:22 10° WNW 05:57:58 67° NNE 06:07:56 10° E visible
22 Apr 8.9 07:53:34 10° WNW 08:03:17 71° SW 08:13:18 10° SE visible
22 Apr 9.9 09:59:42 10° W 10:07:09 25° SW 10:14:42 10° S visible
23 Apr 9.0 01:14:59 10° SW 01:24:04 62° SE 01:33:28 10° ENE visible
23 Apr 9.2 03:19:39 10° W 03:29:03 70° NNW 03:38:49 10° ENE visible
23 Apr 9.2 05:25:26 10° WNW 05:34:59 66° N 05:44:54 10° E visible
23 Apr 8.9 07:30:38 10° WNW 07:40:21 74° SSW 07:50:23 10° SE visible
23 Apr 9.8 09:36:36 10° WNW 09:44:18 26° SW 09:52:07 10° S visible
24 Apr 9.1 00:52:11 10° SW 01:01:12 59° SE 01:10:29 10° ENE visible
24 Apr 9.2 02:56:42 10° W 03:06:06 72° NNW 03:15:51 10° ENE visible
24 Apr 9.3 05:02:29 10° WNW 05:12:00 66° N 05:21:52 10° E visible
24 Apr 8.9 07:07:42 10° WNW 07:17:25 77° SSW 07:27:28 10° SE visible
24 Apr 9.7 09:13:32 10° WNW 09:21:27 28° SW 09:29:31 10° S visible
25 Apr 9.2 02:33:46 10° WSW 02:43:08 74° NNW 02:52:52 10° ENE visible
25 Apr 9.3 04:39:32 10° WNW 04:49:01 65° N 04:58:50 10° E visible
25 Apr 8.9 06:44:47 10° WNW 06:54:30 80° SSW 07:04:32 10° SE visible
25 Apr 9.6 08:50:29 10° WNW 08:58:35 30° SW 09:06:53 10° S visible
26 Apr 9.1 02:10:50 10° WSW 02:20:11 75° NNW 02:29:53 10° ENE visible
26 Apr 9.3 04:16:35 10° WNW 04:26:02 64° N 04:35:49 10° E visible
26 Apr 8.9 06:21:52 10° WNW 06:31:34 83° SSW 06:41:35 10° ESE visible
26 Apr 9.5 08:27:26 10° WNW 08:35:44 32° SW 08:44:13 10° S visible
27 Apr 9.1 01:47:53 10° WSW 01:57:14 77° NNW 02:06:54 10° ENE visible
27 Apr 9.3 03:53:39 10° WNW 04:03:03 63° N 04:12:48 10° E visible
27 Apr 8.9 05:58:57 10° WNW 06:08:37 86° SSW 06:18:38 10° ESE visible
27 Apr 9.7 08:04:26 10° WNW 08:16:52 26° S 08:21:32 10° SSE visible
